Weather History for Spokane, WA

Change the Weather History Date:

Tuesday, March 27, 2012

  Actual Average Record
Temperature  
Mean Temperature 40 °F 43 °F  
Max Temperature 48 °F 52 °F 72 °F (1889)
Min Temperature 31 °F 34 °F 16 °F (1944)
Degree Days  
Heating Degree Days 25 22  
Month to date heating degree days 726 682  
Since 1 July heating degree days 5405 5511  
Cooling Degree Days 0 0  
Month to date cooling degree days 0 0  
Year to date cooling degree days 0 0  
Moisture  
Dew Point 35 °F    
Average Humidity 81    
Maximum Humidity 100    
Minimum Humidity 61    
Precipitation  
Precipitation 0.05 in 0.05 in 0.88 in (2005)
Month to date precipitation 3.36 1.40  
Year to date precipitation 6.85 4.52  
Snow  
Snow 0.00 in 0.10 in 2.60 in (1979)
Month to date snowfall 5.5 3.1  
Since 1 July snowfall 35.7 43.4  
Snow Depth 0.00 in    
Sea Level Pressure  
Sea Level Pressure 29.84 in    
Wind  
Wind Speed 6 mph (ESE)    
Max Wind Speed 14 mph    
Max Gust Speed 16 mph    
Visibility 10 miles    
Events Fog , Rain    
T = Trace of Precipitation, MM = Missing Value Source: NWS Daily Summary

Daily Weather History Graph

Daily Weather History Graph

Search for Another Location

Airport:

Trip Planner

Search our weather history database for the weather conditions in past years. The results will help you decide how hot, cold, wet, or windy it might be!

Date:

Astronomy

Mar. 27, 2012 Rise Set
Actual Time 6:37 AM PDT 7:13 PM PDT
Civil Twilight 6:06 AM PDT 7:44 PM PDT
Nautical Twilight 5:29 AM PDT 8:21 PM PDT
Astronomical Twilight 4:51 AM PDT 9:00 PM PDT
Moon 8:50 AM PDT (3/27) No Moon Set
Length of Visible Light 13h 38m
Length of Day
12h 36m
Waxing Crescent, 23% of the Moon is Illuminated
Mar 27
Waxing Crescent
Mar 30
First Quarter
Apr 6
Full
Apr 13
Last Quarter
Apr 21
New

Hourly Weather History & Observations

Time (PDT) Temp. Windchill Dew Point Humidity Pressure Visibility Wind Dir Wind Speed Gust Speed Precip Events Conditions
12:53 AM 37.0 °F 29.3 °F 33.1 °F 86% 29.86 in 10.0 mi SSE 11.5 mph - N/A   Scattered Clouds
1:53 AM 37.0 °F 29.8 °F 33.1 °F 86% 29.86 in 10.0 mi SSE 10.4 mph - N/A   Partly Cloudy
2:53 AM 37.0 °F 29.3 °F 32.0 °F 82% 29.88 in 10.0 mi SSE 11.5 mph - N/A   Partly Cloudy
3:53 AM 35.1 °F 28.6 °F 32.0 °F 89% 29.88 in 10.0 mi SSE 8.1 mph - N/A   Partly Cloudy
4:53 AM 33.1 °F 30.0 °F 30.9 °F 92% 29.88 in 10.0 mi ENE 3.5 mph - N/A   Partly Cloudy
5:53 AM 30.9 °F 27.5 °F 30.0 °F 96% 29.88 in 10.0 mi ENE 3.5 mph - N/A   Partly Cloudy
6:53 AM 30.9 °F 27.5 °F 30.0 °F 96% 29.89 in 10.0 mi East 3.5 mph - N/A Fog Patches of Fog
7:53 AM 33.1 °F 30.0 °F 30.9 °F 92% 29.89 in 10.0 mi ENE 3.5 mph - N/A   Scattered Clouds
8:53 AM 37.0 °F 33.3 °F 33.1 °F 86% 29.90 in 10.0 mi NE 4.6 mph - N/A   Mostly Cloudy
9:53 AM 43.0 °F 40.3 °F 36.0 °F 76% 29.91 in 10.0 mi East 4.6 mph - N/A   Mostly Cloudy
10:53 AM 44.1 °F 41.5 °F 34.0 °F 68% 29.91 in 10.0 mi SSE 4.6 mph - N/A   Mostly Cloudy
11:53 AM 45.0 °F 40.6 °F 33.1 °F 63% 29.91 in 10.0 mi SSW 8.1 mph - 0.00 in Rain Light Rain
12:53 PM 44.1 °F 40.1 °F 36.0 °F 73% 29.90 in 10.0 mi SSW 6.9 mph - 0.00 in Rain Light Rain
1:53 PM 45.0 °F 40.6 °F 37.0 °F 74% 29.88 in 10.0 mi SSE 8.1 mph - 0.00 in Rain Light Rain
2:53 PM 46.0 °F 41.0 °F 36.0 °F 68% 29.86 in 10.0 mi SE 10.4 mph - 0.00 in   Overcast
3:33 PM 46.4 °F 41.9 °F 35.6 °F 66% 29.82 in 10.0 mi SE 9.2 mph - N/A   Overcast
3:53 PM 46.9 °F - 37.0 °F 68% 29.85 in 10.0 mi SE 8.1 mph - N/A   Overcast
4:26 PM 46.4 °F 41.5 °F 35.6 °F 66% 29.81 in 10.0 mi SSE 10.4 mph - N/A   Overcast
4:53 PM 48.0 °F - 36.0 °F 63% 29.82 in 10.0 mi SSE 6.9 mph - N/A   Overcast
5:53 PM 48.0 °F - 36.0 °F 63% 29.81 in 10.0 mi Calm Calm - N/A   Overcast
6:53 PM 48.0 °F - 37.0 °F 66% 29.79 in 10.0 mi NE 4.6 mph - N/A   Overcast
7:53 PM 45.0 °F 43.5 °F 39.9 °F 82% 29.80 in 9.0 mi WNW 3.5 mph - 0.00 in Rain Light Rain
8:53 PM 45.0 °F - 39.9 °F 82% 29.78 in 10.0 mi Calm Calm - 0.01 in Rain Light Rain
9:53 PM 44.1 °F - 39.9 °F 85% 29.76 in 10.0 mi Calm Calm - 0.02 in Rain Light Rain
10:53 PM 44.1 °F 39.5 °F 39.9 °F 85% 29.73 in 10.0 mi East 8.1 mph - 0.01 in Rain Light Rain
11:53 PM 43.0 °F 36.8 °F 39.9 °F 89% 29.69 in 10.0 mi ENE 11.5 mph - 0.01 in   Overcast